NOAA 17 DEB, 48758

Orbit data source: Space-Track

NOAA 17 DEB, 48758 is space debris in SSO originally from a launch on Mon, 24 Jun 2002 UTC launched from the Air Force Western Test Range (AFWTR). Debris objects in space refer to the collection of defunct objects orbiting the Earth. Examples of debris include non-operational satellites, rocket bodies, and fragments generated from explosions, collisions, or faulty payload assembly.

Loading next visibility...
Identifier
48758, 2002-032CT
Orbit
SSO
Country
Flag of USUS
Related business
Manufacturer
Unknown
Mission
Spacecraft
Bus & Motor
Unknown
Mass
Unknown
Launch date (UTC)
2002-06-24 (23 years ago)
Launch vehicle
Unknown
Launch site
Air Force Western Test Range (AFWTR)
Object type
Payload
Rocket body
Debris
Shape & HBR
Unknown shape, 0.1 m
Radar Cross Section
Small (<0.1 m²)

Expand to show TLE details & history
Last TLE update: 2 days ago

TLE from 2 days ago
0 NOAA 17 DEB
1 48758U 02032CT  25348.16893512  .00010955  00000-0  26068-2 0  9990
2 48758  98.7339 325.7688 0007801  64.4551 295.7450 14.53982594246311
Epoch: 2025-12-14T04:03Z
TLE epoch observation values (Epoch: 2025-12-14T04:03:15.994Z)
Latitude
-0°
Longitude
-178.13356°
Altitude
713.231 km
Speed
7.5 km/s
True Right ascension
21h 43m 04s
True Declination
0° 00' 00"
Sunlit
Object was in daylight at epoch
Visualization orbit readout
Latitude
Unknown
Longitude
Unknown
Altitude
Unknown
Speed
Unknown
Apparent Right ascension
Unknown
Apparent Declination
Unknown
Sunlit
N/A
Visualization observer readout
Local Sidereal Time
17:04:17
Azimuth
Unknown
Elevation
Unknown
Doppler factor
Unknown
Orbital elements
Apogee altitude
715.314 km
Perigee altitude
704.256 km
Semi-major axis
7,087.922 km
Eccentricity
0.00078
Inclination
98.7339°
RAAN
325.7688°
Arg. of periapsis
64.4551°
True anomaly
295.66445°
Mean anomaly
295.745°
Eccentric anomaly
295.70473°
Mean motion
3.63718 °/min
Orbital period
98.98 mins
BSTAR
0.0026068
Loading maneuver chart data...
Computing Atmospheric mass density...
Loading historical data...
Loading historical data...
Loading historical data...
Loading historical data...
Loading historical data...
Loading historical data...
Loading historical data...

Documentation

Showing up to 5 results
|